Tracking 20712 objects as of 28-May-2020
HD Live streaming from Space Station
objects crossing your sky now

INS-1B

Track INS-1B now!
10-day predictions


NORAD ID: 41954
Int'l Code: 2017-008G
Perigee: 492.1 km
Apogee: 505.3 km
Inclination: 97.4 °
Period: 94.4 minutes
Semi major axis: 6869 km
RCS: Unknown
Launch date: February 15, 2017
Source: India (IND)
Launch site: SRIHARIKOTA (SRI)
aabbcc
Your satellite tracking list
Your tracking list is empty




NASA's NSSDC Master Catalog

Two Line Element Set (TLE):
1 41954U 17008G   20148.80564563 +.00001037 +00000-0 +44695-4 0  9994
2 41954 097.3552 213.5747 0009559 024.8455 335.3241 15.24737572182220
Source of the keplerian elements: AFSPC